TimeEST,TemperatureF,Dew PointF,Humidity,Sea Level PressureIn,VisibilityMPH,Wind Direction,Wind SpeedMPH,Gust SpeedMPH,PrecipitationIn,Events,Conditions,WindDirDegrees,DateUTC
12:15 AM,50.9,43.9,77,30.07,7.0,ESE,3.5,-,N/A,,Overcast,110,2012-11-10 05:15:00
12:34 AM,50.5,43.9,78,30.06,7.0,ESE,3.5,-,N/A,,Overcast,110,2012-11-10 05:34:00
12:54 AM,50.4,44.4,80,30.07,7.0,East,3.5,-,N/A,,Overcast,90,2012-11-10 05:54:00
1:15 AM,50.4,44.4,80,30.07,7.0,East,3.5,-,N/A,,Overcast,90,2012-11-10 06:15:00
1:34 AM,50.2,44.2,80,30.06,7.0,East,3.5,-,N/A,,Overcast,100,2012-11-10 06:34:00
1:54 AM,50.7,43.9,77,30.06,7.0,Calm,Calm,-,N/A,,Overcast,0,2012-11-10 06:54:00
2:14 AM,50.9,43.7,76,30.07,7.0,SE,4.6,-,N/A,,Overcast,130,2012-11-10 07:14:00
2:34 AM,51.1,43.2,74,30.07,7.0,ESE,4.6,-,N/A,,Overcast,110,2012-11-10 07:34:00
2:55 AM,51.1,43.2,74,30.07,7.0,SE,4.6,-,N/A,,Overcast,130,2012-11-10 07:55:00
3:14 AM,50.9,43.3,75,30.07,7.0,SE,3.5,-,N/A,,Overcast,130,2012-11-10 08:14:00
3:34 AM,51.1,43.2,74,30.08,7.0,ESE,3.5,-,N/A,,Overcast,120,2012-11-10 08:34:00
3:55 AM,50.9,43.0,74,30.08,7.0,SE,4.6,-,N/A,,Overcast,130,2012-11-10 08:55:00
4:14 AM,51.1,43.0,74,30.08,10.0,ESE,4.6,-,N/A,,Overcast,120,2012-11-10 09:14:00
4:34 AM,51.1,43.0,74,30.07,10.0,SE,5.8,-,N/A,,Overcast,130,2012-11-10 09:34:00
4:55 AM,50.9,43.2,75,30.07,10.0,ESE,4.6,-,N/A,,Overcast,120,2012-11-10 09:55:00
5:14 AM,50.9,43.2,75,30.08,10.0,Calm,Calm,-,N/A,,Overcast,0,2012-11-10 10:14:00
5:34 AM,51.1,43.0,74,30.08,10.0,SE,4.6,-,N/A,,Overcast,140,2012-11-10 10:34:00
5:55 AM,51.1,43.2,74,30.07,10.0,SE,3.5,-,N/A,,Overcast,140,2012-11-10 10:55:00
6:14 AM,51.3,43.0,73,30.07,10.0,SSE,4.6,-,N/A,,Overcast,150,2012-11-10 11:14:00
6:34 AM,51.3,43.0,73,30.07,10.0,SSE,5.8,-,N/A,,Overcast,150,2012-11-10 11:34:00
6:55 AM,51.3,42.8,73,30.08,10.0,SSE,5.8,-,N/A,,Overcast,150,2012-11-10 11:55:00
7:35 AM,51.3,42.8,73,30.08,10.0,SSE,4.6,-,N/A,,Overcast,160,2012-11-10 12:35:00
7:54 AM,51.3,42.8,73,30.08,7.0,SE,5.8,-,N/A,,Overcast,140,2012-11-10 12:54:00
8:15 AM,51.3,43.0,73,30.09,10.0,SSE,4.6,-,N/A,,Overcast,150,2012-11-10 13:15:00
8:35 AM,51.6,43.2,73,30.10,7.0,SSE,5.8,-,N/A,,Overcast,160,2012-11-10 13:35:00
8:54 AM,51.8,43.2,72,30.10,10.0,SSE,8.1,-,N/A,,Overcast,150,2012-11-10 13:54:00
9:15 AM,52.2,43.7,73,30.10,10.0,SSE,4.6,-,N/A,,Overcast,160,2012-11-10 14:15:00
9:34 AM,53.2,43.2,69,30.09,10.0,South,5.8,-,N/A,,Overcast,180,2012-11-10 14:34:00
9:54 AM,54.3,43.2,66,30.08,10.0,SSE,6.9,-,N/A,,Overcast,160,2012-11-10 14:54:00
10:15 AM,54.9,43.3,65,30.07,10.0,South,5.8,-,N/A,,Overcast,170,2012-11-10 15:15:00
10:34 AM,56.5,43.5,62,30.05,10.0,SSE,8.1,-,N/A,,Mostly Cloudy,150,2012-11-10 15:34:00
10:54 AM,58.5,44.2,59,30.06,10.0,SSE,9.2,-,N/A,,Scattered Clouds,160,2012-11-10 15:54:00
11:15 AM,59.5,44.6,58,30.07,10.0,SSW,5.8,-,N/A,,Scattered Clouds,200,2012-11-10 16:15:00
11:34 AM,60.4,45.0,57,30.06,10.0,SSW,8.1,-,N/A,,Scattered Clouds,200,2012-11-10 16:34:00
11:54 AM,61.7,44.2,53,30.05,10.0,SSW,10.4,-,N/A,,Clear,200,2012-11-10 16:54:00
12:15 PM,62.6,45.0,52,30.05,10.0,South,10.4,-,N/A,,Scattered Clouds,190,2012-11-10 17:15:00
12:34 PM,63.0,45.0,52,30.04,10.0,South,9.2,-,N/A,,Mostly Cloudy,190,2012-11-10 17:34:00
12:54 PM,63.5,45.1,51,30.03,10.0,SSW,12.7,17.3,N/A,,Overcast,210,2012-11-10 17:54:00
1:15 PM,64.4,45.0,49,30.01,10.0,SSE,9.2,-,N/A,,Scattered Clouds,160,2012-11-10 18:15:00
1:34 PM,65.5,45.5,48,30.01,10.0,South,10.4,-,N/A,,Clear,170,2012-11-10 18:34:00
1:55 PM,64.6,45.5,50,30.01,10.0,South,8.1,21.9,N/A,,Mostly Cloudy,180,2012-11-10 18:55:00
2:15 PM,65.3,45.5,49,30.01,10.0,South,9.2,-,N/A,,Overcast,190,2012-11-10 19:15:00
2:34 PM,65.5,45.9,49,30.00,10.0,South,8.1,-,N/A,,Mostly Cloudy,190,2012-11-10 19:34:00
2:55 PM,64.8,46.0,51,29.99,10.0,South,9.2,-,N/A,,Clear,170,2012-11-10 19:55:00
3:14 PM,64.6,46.4,52,30.00,10.0,South,11.5,16.1,N/A,,Clear,170,2012-11-10 20:14:00
3:34 PM,64.4,46.4,52,30.00,10.0,South,10.4,-,N/A,,Clear,170,2012-11-10 20:34:00
3:55 PM,64.4,46.6,52,30.01,10.0,South,9.2,-,N/A,,Clear,180,2012-11-10 20:55:00
4:14 PM,64.4,46.8,53,30.01,10.0,South,9.2,-,N/A,,Clear,170,2012-11-10 21:14:00
4:34 PM,63.9,46.9,54,30.02,10.0,SSW,8.1,-,N/A,,Clear,200,2012-11-10 21:34:00
4:55 PM,63.3,47.3,56,30.01,10.0,South,6.9,-,N/A,,Scattered Clouds,180,2012-11-10 21:55:00
5:14 PM,63.0,47.3,57,30.00,10.0,South,6.9,-,N/A,,Scattered Clouds,180,2012-11-10 22:14:00
5:34 PM,62.2,47.3,58,29.99,10.0,South,8.1,-,N/A,,Clear,170,2012-11-10 22:34:00
5:55 PM,61.9,47.5,59,29.99,10.0,South,9.2,-,N/A,,Clear,170,2012-11-10 22:55:00
6:14 PM,62.1,47.8,60,29.98,10.0,South,12.7,17.3,N/A,,Clear,170,2012-11-10 23:14:00
6:34 PM,63.3,48.4,58,29.98,10.0,South,13.8,20.7,N/A,,Clear,180,2012-11-10 23:34:00
6:55 PM,64.2,48.2,56,29.98,10.0,South,12.7,23.0,N/A,,Clear,190,2012-11-10 23:55:00
7:14 PM,64.2,47.8,55,29.98,10.0,SSW,15.0,20.7,N/A,,Scattered Clouds,200,2012-11-11 00:14:00
7:35 PM,64.0,46.9,54,29.99,10.0,SSW,13.8,23.0,N/A,,Scattered Clouds,200,2012-11-11 00:35:00
7:55 PM,63.7,46.4,53,29.99,10.0,SSW,12.7,20.7,N/A,,Clear,200,2012-11-11 00:55:00
8:14 PM,63.7,45.9,52,30.00,10.0,SSW,15.0,24.2,N/A,,Clear,200,2012-11-11 01:14:00
8:35 PM,63.7,45.5,52,30.01,10.0,SSW,12.7,21.9,N/A,,Clear,200,2012-11-11 01:35:00
8:54 PM,63.7,45.5,52,30.02,10.0,SSW,10.4,21.9,N/A,,Scattered Clouds,200,2012-11-11 01:54:00
9:14 PM,63.7,45.0,51,30.02,10.0,SSW,9.2,21.9,N/A,,Scattered Clouds,200,2012-11-11 02:14:00
9:35 PM,63.3,44.8,51,30.02,10.0,SSW,8.1,16.1,N/A,,Clear,200,2012-11-11 02:35:00
9:54 PM,63.5,44.8,51,30.02,10.0,SSW,8.1,19.6,N/A,,Light Drizzle,200,2012-11-11 02:54:00
10:35 PM,62.1,45.0,53,30.02,10.0,SSW,8.1,16.1,N/A,,Clear,200,2012-11-11 03:35:00
10:54 PM,61.7,45.0,54,30.02,10.0,SSW,10.4,18.4,N/A,,Clear,210,2012-11-11 03:54:00
11:14 PM,61.7,45.0,54,30.02,10.0,SSW,12.7,21.9,N/A,,Clear,200,2012-11-11 04:14:00
11:35 PM,61.0,45.3,56,30.02,10.0,SSW,11.5,17.3,N/A,,Clear,200,2012-11-11 04:35:00
11:54 PM,61.0,45.5,57,30.03,10.0,SSW,11.5,18.4,N/A,,Clear,200,2012-11-11 04:54:00